Location: Caltech
(34.1382°N, 118.1253°W)
Time: 06:56:57
(UTC-07:00)

Oscar 11 - Visible Passes

Search period start: 30 August 2015 00:00
Search period end: 09 September 2015 00:00
Orbit: 615 x 627 km, 97.8° (Epoch: 30 August)

Date Brightness Start Highest point End Pass type
(mag) Time Alt. Az. Time Alt. Az. Time Alt. Az.
30 Aug 8.6 20:58:16 21° NE 20:58:16 21° NE 21:00:45 10° NNE visible
30 Aug 9.7 22:35:28 18° NW 22:35:28 18° NW 22:36:59 10° NW visible
31 Aug 8.4 21:16:17 28° NE 21:16:17 28° NE 21:18:55 10° N visible
31 Aug 10.2 22:53:30 11° WNW 22:53:30 11° WNW 22:53:53 10° NW visible
01 Sep 8.3 21:34:19 33° NNE 21:34:19 33° NNE 21:36:51 10° N visible
02 Sep 8.7 21:52:20 31° NNW 21:52:20 31° NNW 21:54:36 10° NNW visible
03 Sep 9.3 20:33:10 11° NE 20:33:10 11° NE 20:33:52 10° NE visible
03 Sep 9.2 22:10:22 24° NNW 22:10:22 24° NNW 22:12:12 10° NNW visible
04 Sep 9.0 20:51:11 16° NE 20:51:11 16° NE 20:52:49 10° NNE visible
04 Sep 9.8 22:28:23 17° NW 22:28:23 17° NW 22:29:35 10° NW visible
05 Sep 8.8 21:09:13 21° NNE 21:09:13 21° NNE 21:11:07 10° NNE visible
05 Sep 10.2 22:46:25 11° NW 22:46:25 11° NW 22:46:40 10° NW visible
06 Sep 8.8 21:27:14 24° NNE 21:27:14 24° NNE 21:29:09 10° N visible
07 Sep 9.0 21:45:16 23° N 21:45:16 23° N 21:46:58 10° N visible
08 Sep 9.5 22:03:17 19° NNW 22:03:17 19° NNW 22:04:38 10° NNW visible
